Location: Grand Rapids
(42.9630°N, 85.6680°W)
Time: 03:30:46
(UTC-04:00)

Transit 4A - Visible Passes

Search period start: 30 May 2024 00:00
Search period end: 09 June 2024 00:00
Orbit: 871 x 971 km, 66.8° (Epoch: 29 May)

Date Brightness Start Highest point End Pass type
(mag) Time Alt. Az. Time Alt. Az. Time Alt. Az.
30 May 8.7 04:34:23 11° S 04:39:46 43° ESE 04:45:14 10° NE visible
31 May 8.1 04:43:28 13° SSW 04:48:41 63° ESE 04:54:26 10° NE visible
01 Jun 10.0 03:09:19 10° SE 03:12:11 14° ESE 03:15:02 10° ENE visible
01 Jun 7.8 04:52:29 14° SSW 04:57:40 89° WNW 05:03:32 10° NNE visible
02 Jun 9.5 03:17:58 15° SE 03:20:55 22° ESE 03:25:13 10° ENE visible
02 Jun 8.0 05:01:28 13° SW 05:06:43 62° WNW 05:12:31 10° NNE visible
03 Jun 9.0 03:26:54 21° SSE 03:29:43 32° ESE 03:34:49 10° NE visible
03 Jun 8.5 05:10:24 10° WSW 05:15:52 44° NW 05:21:26 10° NNE visible
04 Jun 8.4 03:35:47 27° S 03:38:35 48° ESE 03:44:09 10° NE visible
04 Jun 8.9 05:19:56 10° WSW 05:25:05 31° NW 05:30:15 10° NNE visible
05 Jun 7.8 03:44:37 31° SSW 03:47:31 71° ESE 03:53:20 10° NE visible
06 Jun 9.6 02:09:56 15° ESE 02:10:57 16° ESE 02:14:20 10° ENE visible
06 Jun 7.8 03:53:25 29° SW 03:56:32 80° WNW 04:02:23 10° NNE visible
07 Jun 9.1 02:18:41 23° ESE 02:19:42 24° ESE 02:24:16 10° NE visible
07 Jun 8.1 04:02:10 24° SW 04:05:37 56° NW 04:11:21 10° NNE visible
08 Jun 8.6 02:27:24 33° SE 02:28:31 36° ESE 02:33:47 10° NE visible
08 Jun 8.7 04:10:53 18° WSW 04:14:46 39° NW 04:20:14 10° NNE visible
